Weather Roundup
Issued by NWS

Home | Current Version | Previous Version | Graphics & Text | Print | Product List | Glossary Off
Versions: 1 2 3 4 5 6 7 8 9 10 11 12 13 14 15 16 17 18 19 20 21 22 23 24 25 26 27 28 29 30 31 32 33 34 35 36 37 38 39 40 41 42 43 44 45 46 47 48 49 50

000
NZUS93 KARX 210959
HRRWXR

CURRENT HOURLY OBSERVATIONS ACROSS
MUCH OF THE UPPER MISSISSIPPI VALLEY
NATIONAL WEATHER SERVICE LA CROSSE WI
500 AM CDT SUN SEP 21 2014


...SOUTHEAST MINNESOTA...


CITY           SKY/WX    TMP DP  RH WIND       PRES   REMARKS
ROCHESTER      MOCLDY    53  49  86 NW14G24   29.91R
ROCHESTER/MAYO FAIR      54  49  84 NW22G28   29.90R
WINONA         MOCLDY    55  48  76 NW12G24   29.85R
AUSTIN         CLEAR     54  48  82 NW14G21   29.93R
ALBERT LEA     CLEAR     54  48  82 NW10G20   29.95R
DODGE CENTER   PTCLDY    54  50  87 NW15      29.92R
PRESTON        MOCLDY    53  52  97 NW18G28   29.89R
OWATONNA       PTCLDY    54  48  82 NW13      29.95R
FARIBAULT      PTCLDY    55  46  71 NW9G16    29.95R
$$

...ELSEWHERE IN MINNESOTA...


CITY           SKY/WX    TMP DP  RH WIND       PRES   REMARKS
MINNEAPOLIS    PTCLDY    53  46  77 NW16G26   29.93R
INTNL FALLS    CLOUDY    48  47  96 NW8       29.97R
DULUTH         CLOUDY    53  49  86 N8        29.90R
RED WING       PTCLDY    54  46  76 NW9G20    29.89R
REDWOOD FALLS  CLEAR     53  48  83 NW12      30.02R
MANKATO        CLEAR     52  45  76 NW12      29.98R
WORTHINGTON    CLEAR     52  45  76 NW10      30.07R
FAIRMONT       CLEAR     55  43  62 NW13      30.00R
$$

...SOUTHWEST WISCONSIN...


CITY           SKY/WX    TMP DP  RH WIND       PRES   REMARKS
LA CROSSE      CLOUDY    58  49  72 NW17G28   29.82R
PRAIRIE DU CHI CLEAR     56  52  86 W10       29.84S
BOSCOBEL       PTCLDY    59  50  72 W15G21    29.83R
LONE ROCK      NOT AVBL
PLATTEVILLE    CLEAR     55  52  92 W14G20    29.84S
FORT MC COY    NOT AVBL
VIROQUA        PTSUNNY   54  50  86 NW15G26   29.81R
WIS DELLS      MOCLDY    54  49  83 W9        29.75S
$$

...ELSEWHERE IN WISCONSIN...


CITY           SKY/WX    TMP DP  RH WIND       PRES   REMARKS
MILWAUKEE      PTCLDY    58  50  75 W12       29.72R
MADISON        PTCLDY    56  51  84 VRB7      29.76R
GREEN BAY      LGT RAIN  56  55  97 W9        29.65S
EAU CLAIRE     CLOUDY    53  49  86 NW15G22   29.81R
BLACK RVR FLS  CLOUDY    55  47  74 W9G20     29.79R
MEDFORD        RAIN      51  50  97 NW8       29.74R
WAUSAU         CLOUDY    54  51  90 NW9G16    29.71R
WIS RAPIDS     LGT RAIN  53  51  93 NW16G22   29.74R
MARSHFIELD     LGT RAIN  53  50  89 NW14G22   29.74R
RICE LAKE      CLOUDY    52  49  90 NW12G17   29.84R
$$

...NORTHEAST IOWA...


CITY           SKY/WX    TMP DP  RH WIND       PRES   REMARKS
WATERLOO       CLEAR     55  50  83 W10       29.92R
DUBUQUE        CLEAR     54  52  93 W15       29.86R
DECORAH        CLEAR     54  52  94 NW8G15    29.86S
MASON CITY     CLEAR     52  48  86 W16       29.97R
CHARLES CITY   CLEAR     54  50  87 W13       29.93R
OELWEIN        CLEAR     55  52  88 W12       29.91R
$$

...ELSEWHERE IN IOWA...


CITY           SKY/WX    TMP DP  RH WIND       PRES   REMARKS
DES MOINES     CLEAR     57  50  77 W10       30.00R
IOWA CITY        N/A     55  53  93 W8        29.94R
FORT DODGE     CLEAR     55  45  67 W7        30.02R
MARSHALLTOWN   CLEAR     55  50  83 W10       29.96R
CEDAR RAPIDS   CLEAR     55  53  93 W13       29.92R
$$

...NORTHERN ILLINOIS...


CITY           SKY/WX    TMP DP  RH WIND       PRES   REMARKS
CHICAGO-OHARE  CLEAR     59  53  80 W15       29.77R
DUPAGE         CLEAR     58  53  84 W14       29.80R
CHICAGO-MIDWAY PTCLDY    62  55  77 W12       29.78R
MOLINE         CLEAR     56  51  84 W8        29.90S
ROCKFORD       CLEAR     56  51  84 W10       29.84R
STERLING       CLEAR     55  50  82 W9        29.86S
PEORIA         CLEAR     60  52  74 W6        29.92R
$$

NOTE: "FAIR" INDICATES FEW OR NO CLOUDS BELOW 12,000 FEET WITH NO
SIGNIFICANT WEATHER AND/OR OBSTRUCTIONS TO VISIBILITY. WIND
SPEEDS ARE IN MILES-PER-HOUR.



USA.gov is the U.S. government's official web portal to all federal, state and local government web resources and services.